AMAZONAS 3 (39078 NORAD) Tracking and Keplerian Element Data

This shows tracking and keplerian element data for the satellite.

Feedback or suggestion? Click here.




ElementValue
Catalog39078
NameAMAZONAS 3
Epoch Orbit2277
Epoch Day113.44939076
Epoch Year2019
RAAN216.6244
Inclination0.0239
Eccentricity0.0001518
Argument of Perigee187.7535
Mean Anonmoly267.591
Mean Motion1.00267331
Decay Rate-2.98E-06
L11 39078U 13006A 19113.44939076 -.00000298 00000-0 00000+0 0 9993
L22 39078 0.0239 216.6244 0001518 187.7535 267.5910 1.00267331 22770

Live tracking and technical data element details for AMAZONAS 3 (NORAD 39078). AMAZONAS 3 can be tracked NOW for your location showing map with azimuth and elevation plus other details from your city location.

Track the satellite on the map from your city or location and see movement details for azimuth, elevation, latitude, longitude, range, height, and movement on the map or in text.







IsCatalogInMostPopularTable: catalog: 39078, numindb: 164
Update: records affected: 1



GetName: 39078 AMAZONAS 3

Hit Count: updated at: Thu, 25 Apr 2019 19:54:46 GMT